Hourly Data Report for October 11, 2015

All times are specified in Local Standard Time (LST). Add 1 hour to adjust for Daylight Saving Time where and when it is observed.

CHARLOTTETOWN A
PRINCE EDWARD ISLAND

46°17'21.000" N
63°07'09.000" W
48.50 m
8300301
71706
YYG

Download Data

Hourly Data (October 2015)
Hourly Data Report for October 11, 2015
Temp Definition
°C
Dew Point Temp Definition
°C
Rel Hum Definition
%
Wind Dir Definition
10's deg

Wind Spd Definition
km/h
Visibility Definition
km
Stn Press Definition
kPa
Hmdx Definition


Wind Chill Definition


Weather Definition


TIME
00:00 Legend Double Dagger 2.6 -3.7 63 24 8 24.1 100.79     LegendNANA
01:00 Legend Double Dagger 2.6 -3.1 66 24 8 24.1 100.79     LegendNANA
02:00 Legend Double Dagger 2.5 -3.0 67 26 9 24.1 100.76     Mainly Clear
03:00 Legend Double Dagger 2.7 -1.7 73 26 8 24.1 100.71     LegendNANA
04:00 Legend Double Dagger 3.4 -1.2 72 25 8 24.1 100.68     LegendNANA
05:00 Legend Double Dagger 3.9 0.2 77 24 11 24.1 100.70     Cloudy
06:00 Legend Double Dagger 4.6 0.2 73 23 9 24.1 100.67     LegendNANA
07:00 Legend Double Dagger 5.0 0.2 71 22 9 24.1 100.66     LegendNANA
08:00 Legend Double Dagger 5.7 0.3 68 24 7 24.1 100.64     Cloudy
09:00 Legend Double Dagger 7.3 -0.9 56 22 15 24.1 100.58     LegendNANA
10:00 Legend Double Dagger 9.3 1.3 57 21 23 24.1 100.51     LegendNANA
11:00 Legend Double Dagger 9.7 4.7 71 22 19 24.1 100.45     Cloudy
12:00 Legend Double Dagger 10.4 5.2 70 21 30 24.1 100.35     LegendNANA
13:00 Legend Double Dagger 9.8 7.1 83 21 22 12.9 100.26     Rain Showers
14:00 Legend Double Dagger 9.7 8.2 90 22 23 12.9 100.20     Rain Showers
15:00 Legend Double Dagger 10.5 8.9 90 23 18 19.3 100.14     Rain Showers
16:00 Legend Double Dagger 10.9 9.2 89 22 17 16.1 100.12     Rain Showers
17:00 Legend Double Dagger 11.5 8.7 83 22 19 24.1 100.10     Cloudy
18:00 Legend Double Dagger 11.7 8.4 80 23 21 24.1 100.13     LegendNANA
19:00 Legend Double Dagger 11.9 9.1 83 23 14 24.1 100.18     LegendNANA
20:00 Legend Double Dagger 11.8 9.7 87 24 12 24.1 100.18     Cloudy
21:00 Legend Double Dagger 11.7 9.6 87 23 12 24.1 100.22     LegendNANA
22:00 Legend Double Dagger 11.8 8.5 80 23 12 24.1 100.23     LegendNANA
23:00 Legend Double Dagger 11.7 8.2 79 24 12 24.1 100.25     Cloudy

Notes on Data Quality.

Legend

  • E = Estimated
  • M = Missing
  • NA = Not Available
  • ‡ = Partner data that is not subject to review by the National Climate Archives
Date modified: